CW8998 Weather Reports


Display with metric or nautical units.
time (UTC)temp
F
wind
direction
speed
MPH
gust
MPH
rain 1hr
in
rain 24hr
in
rain mn
in
humidity
%
barometer
mb
20260507005528 42 303 5.0 13.0 0.00 0.00 0.00 47 1014.3
20260507005028 42 294 6.0 13.0 0.00 0.00 0.00 46 1014.3
20260507004540 43 236 7.0 13.0 0.00 0.00 0.00 46 1014.4
20260507004028 43 325 5.0 13.0 0.00 0.00 0.00 46 1014.4
20260507003529 43 322 5.0 11.0 0.00 0.00 0.00 46 1014.5
20260507003041 43 300 4.0 9.0 0.00 0.00 0.00 46 1014.4
20260507002528 43 277 2.0 9.0 0.00 0.00 0.00 46 1014.4
20260507002028 43 319 3.0 10.0 0.00 0.00 0.00 47 1014.5
20260507001559 43 288 4.0 10.0 0.00 0.00 0.00 46 1014.5
20260507001029 43 296 4.0 13.0 0.00 0.00 0.00 46 1014.5
20260507000528 43 290 7.0 13.0 0.00 0.00 0.00 45 1014.5
20260507000043 43 273 4.0 11.0 0.00 0.00 0.00 46 1014.7
20260506235530 43 65 1.0 11.0 0.00 0.00 0.00 47 1014.5
20260506235029 43 360 2.0 12.0 0.00 0.00 0.00 46 1014.6
20260506234542 43 297 6.0 12.0 0.00 0.00 0.00 45 1014.7
20260506234029 43 333 3.0 9.0 0.00 0.00 0.00 45 1014.6
20260506233529 43 348 3.0 9.0 0.00 0.00 0.00 46 1014.8
20260506233048 43 284 4.0 10.0 0.00 0.00 0.00 46 1014.8
20260506232528 43 240 4.0 12.0 0.00 0.00 0.00 46 1014.9
20260506232028 43 303 5.0 14.0 0.00 0.00 0.00 47 1015.0
20260506231538 43 275 6.0 14.0 0.00 0.00 0.00 47 1015.0
20260506231027 43 257 7.0 14.0 0.00 0.00 0.00 47 1015.0
20260506230528 43 281 7.0 13.0 0.00 0.00 0.00 47 1015.2
20260506230044 43 296 4.0 11.0 0.00 0.00 0.00 47 1015.0
20260506225528 43 292 4.0 11.0 0.00 0.00 0.00 47 1015.1
20260506225028 43 284 5.0 11.0 0.00 0.00 0.00 47 1015.1
20260506224542 43 262 6.0 15.0 0.00 0.00 0.00 47 1015.1
20260506224028 43 273 9.0 15.0 0.00 0.00 0.00 47 1015.1
20260506223528 43 310 6.0 14.0 0.00 0.00 0.00 46 1015.1
20260506223045 44 288 6.0 13.0 0.00 0.00 0.00 46 1015.1
20260506222529 43 5 6.0 11.0 0.00 0.00 0.00 46 1015.1
20260506222030 44 314 5.0 14.0 0.00 0.00 0.00 46 1015.1
20260506221545 44 315 4.0 17.0 0.00 0.00 0.00 46 1015.0
20260506221028 44 282 8.0 17.0 0.00 0.00 0.00 45 1015.0
20260506220528 44 298 5.0 14.0 0.00 0.00 0.00 45 1015.0
20260506220048 44 271 6.0 14.0 0.00 0.00 0.00 45 1015.0
20260506215528 44 296 2.0 13.0 0.00 0.00 0.00 46 1015.0
20260506215028 44 307 3.0 13.0 0.00 0.00 0.00 45 1015.0
20260506214543 44 307 6.0 16.0 0.00 0.00 0.00 45 1015.1
20260506214031 44 283 9.0 16.0 0.00 0.00 0.00 45 1015.2
20260506213528 44 292 5.0 11.0 0.00 0.00 0.00 46 1015.2
20260506213043 44 335 4.0 14.0 0.00 0.00 0.00 46 1015.2
20260506212532 44 283 4.0 14.0 0.00 0.00 0.00 45 1015.2
20260506212029 44 228 6.0 14.0 0.00 0.00 0.00 44 1015.3
20260506211548 44 264 2.0 14.0 0.00 0.00 0.00 45 1015.2
20260506211028 44 288 7.0 14.0 0.00 0.00 0.00 45 1015.3
20260506210529 44 304 3.0 15.0 0.00 0.00 0.00 45 1015.3
20260506210042 44 281 7.0 15.0 0.00 0.00 0.00 44 1015.3
20260506205528 44 322 9.0 15.0 0.00 0.00 0.00 44 1015.4
20260506205028 44 275 5.0 14.0 0.00 0.00 0.00 45 1015.4
20260506204538 44 268 7.0 14.0 0.00 0.00 0.00 44 1015.4
20260506204028 44 257 3.0 12.0 0.00 0.00 0.00 45 1015.5
20260506203530 43 313 7.0 13.0 0.00 0.00 0.00 45 1015.5
20260506203036 44 312 5.0 13.0 0.00 0.00 0.00 46 1015.5
20260506202530 44 238 4.0 12.0 0.00 0.00 0.00 46 1015.5
20260506202028 44 336 3.0 12.0 0.00 0.00 0.00 45 1015.7
20260506201543 44 292 4.0 12.0 0.00 0.00 0.00 46 1015.7
20260506201029 43 347 5.0 12.0 0.00 0.00 0.00 46 1015.6
20260506200529 44 350 3.0 12.0 0.00 0.00 0.00 46 1015.7
20260506200041 44 312 4.0 13.0 0.00 0.00 0.00 45 1015.6
20260506195528 44 340 3.0 13.0 0.00 0.00 0.00 46 1015.7
20260506195028 44 298 6.0 13.0 0.00 0.00 0.00 45 1015.7
20260506194540 43 306 5.0 13.0 0.00 0.00 0.00 48 1015.5
20260506194026 43 292 7.0 14.0 0.00 0.00 0.00 47 1015.7
20260506193526 43 313 5.0 14.0 0.00 0.00 0.00 46 1015.7
20260506193038 44 264 5.0 10.0 0.00 0.00 0.00 47 1015.7
20260506192529 43 334 3.0 10.0 0.00 0.00 0.00 47 1015.6
20260506192029 43 269 5.0 15.0 0.00 0.00 0.00 48 1015.6
20260506191545 42 267 5.0 15.0 0.00 0.00 0.00 47 1015.6
20260506191029 43 333 7.0 14.0 0.00 0.00 0.00 47 1015.6
20260506190528 42 298 3.0 10.0 0.00 0.00 0.00 48 1015.5
20260506190043 42 246 5.0 14.0 0.00 0.00 0.00 49 1015.5
20260506185528 42 318 6.0 14.0 0.00 0.00 0.00 48 1015.6
20260506185026 42 302 1.0 15.0 0.00 0.00 0.00 49 1015.6
20260506184544 42 300 5.0 15.0 0.00 0.00 0.00 48 1015.7
20260506184029 42 300 5.0 15.0 0.00 0.00 0.00 47 1015.6
20260506183529 42 309 5.0 12.0 0.00 0.00 0.00 48 1015.7
20260506183041 42 281 3.0 12.0 0.00 0.00 0.00 49 1015.8
20260506182528 42 286 4.0 12.0 0.00 0.00 0.00 50 1015.7
20260506182029 41 297 3.0 12.0 0.00 0.00 0.00 49 1015.8
20260506181540 41 248 7.0 12.0 0.00 0.00 0.00 49 1016.0
20260506181025 41 338 4.0 12.0 0.00 0.00 0.00 50 1016.0
20260506180526 41 273 5.0 12.0 0.00 0.00 0.00 50 1016.0
20260506180038 40 41 2.0 9.0 0.00 0.00 0.00 51 1016.1
20260506175525 40 338 4.0 10.0 0.00 0.00 0.00 50 1016.2
20260506175028 40 279 3.0 11.0 0.00 0.00 0.00 51 1016.3
20260506174546 40 286 6.0 11.0 0.00 0.00 0.00 52 1016.4
20260506174029 40 294 5.0 11.0 0.00 0.00 0.00 51 1016.3
20260506173529 40 5 4.0 13.0 0.00 0.00 0.00 52 1016.3
20260506173054 39 26 5.0 13.0 0.00 0.00 0.00 52 1016.4
20260506172528 40 321 4.0 13.0 0.00 0.00 0.00 51 1016.3
20260506172029 39 342 7.0 13.0 0.00 0.00 0.00 52 1016.4
20260506171542 39 257 7.0 13.0 0.00 0.00 0.00 52 1016.5
20260506171028 39 300 4.0 15.0 0.00 0.00 0.00 53 1016.5
20260506170526 39 302 5.0 15.0 0.00 0.00 0.00 53 1016.5
20260506170038 39 290 5.0 13.0 0.00 0.00 0.00 53 1016.5
20260506165528 39 321 5.0 13.0 0.00 0.00 0.00 53 1016.6
20260506165028 38 308 7.0 13.0 0.00 0.00 0.00 53 1016.6
20260506164542 38 290 5.0 13.0 0.00 0.00 0.00 54 1016.5
20260506164027 38 238 6.0 13.0 0.00 0.00 0.00 54 1016.6
20260506163530 38 340 3.0 13.0 0.00 0.00 0.00 55 1016.6
20260506163048 38 289 6.0 15.0 0.00 0.00 0.00 56 1016.6
20260506162527 38 252 6.0 15.0 0.00 0.00 0.00 55 1016.7
20260506162028 38 292 5.0 12.0 0.00 0.00 0.00 55 1016.6
20260506161541 38 355 5.0 13.0 0.00 0.00 0.00 56 1016.7
20260506161029 38 264 4.0 13.0 0.00 0.00 0.00 55 1016.6
20260506160527 38 334 6.0 12.0 0.00 0.00 0.00 55 1016.6
20260506160042 38 305 4.0 11.0 0.00 0.00 0.00 55 1016.7
20260506155529 38 255 4.0 12.0 0.00 0.00 0.00 56 1016.7
20260506155028 38 272 6.0 12.0 0.00 0.00 0.00 56 1016.7
20260506154541 38 291 5.0 11.0 0.00 0.00 0.00 55 1016.7
20260506154028 38 289 4.0 11.0 0.00 0.00 0.00 55 1016.5
20260506153528 38 322 4.0 12.0 0.00 0.00 0.00 55 1016.5
20260506153045 38 355 5.0 12.0 0.00 0.00 0.00 54 1016.5
20260506152528 38 351 5.0 14.0 0.00 0.00 0.00 55 1016.5
20260506152028 38 0 6.0 14.0 0.00 0.00 0.00 54 1016.5
20260506151542 38 317 5.0 10.0 0.00 0.00 0.00 54 1016.5
20260506151027 38 295 4.0 12.0 0.00 0.00 0.00 55 1016.5
20260506150528 37 323 5.0 14.0 0.00 0.00 0.00 55 1016.5
20260506150048 37 309 6.0 14.0 0.00 0.00 0.00 54 1016.6
20260506145531 38 306 2.0 12.0 0.00 0.00 0.00 55 1016.6
20260506145029 37 325 5.0 12.0 0.00 0.00 0.00 55 1016.5
20260506144558 38 298 4.0 10.0 0.00 0.00 0.00 55 1016.5
20260506144028 37 236 3.0 10.0 0.00 0.00 0.00 56 1016.5
20260506143528 37 277 3.0 10.0 0.00 0.00 0.00 57 1016.5
20260506143049 37 176 3.0 10.0 0.00 0.00 0.00 58 1016.4
20260506142527 37 312 3.0 8.0 0.00 0.00 0.00 59 1016.4
20260506142027 37 321 2.0 10.0 0.00 0.00 0.00 59 1016.5
20260506141542 37 22 3.0 10.0 0.00 0.00 0.00 59 1016.4
20260506141028 37 262 3.0 9.0 0.00 0.00 0.00 60 1016.3
20260506140529 37 16 4.0 9.0 0.00 0.00 0.00 61 1016.4
20260506140057 36 360 3.0 13.0 0.00 0.00 0.00 61 1016.3
20260506135527 36 313 4.0 13.0 0.00 0.00 0.00 61 1016.2
20260506135027 36 282 3.0 12.0 0.00 0.00 0.00 61 1016.2
20260506134545 36 303 3.0 10.0 0.00 0.00 0.00 62 1016.2
20260506134030 36 329 5.0 10.0 0.00 0.00 0.00 62 1016.2
20260506133527 36 12 3.0 9.0 0.00 0.00 0.00 62 1016.1
20260506133040 36 350 3.0 8.0 0.00 0.00 0.00 63 1016.1
20260506132528 36 301 3.0 8.0 0.00 0.00 0.00 63 1016.1
20260506132029 36 345 3.0 7.0 0.00 0.00 0.00 63 1016.1
20260506131546 35 303 1.0 10.0 0.00 0.00 0.00 63 1016.1
20260506131028 35 281 3.0 10.0 0.00 0.00 0.00 63 1016.0
20260506130528 35 309 2.0 8.0 0.00 0.00 0.00 64 1016.0
20260506130112 35 316 2.0 8.0 0.00 0.00 0.00 64 1015.8
20260506125527 35 294 3.0 8.0 0.00 0.00 0.00 64 1015.9
20260506125027 35 281 1.0 8.0 0.00 0.00 0.00 65 1015.9
20260506124541 35 302 2.0 8.0 0.00 0.00 0.00 65 1015.8
20260506124028 34 309 2.0 6.0 0.00 0.00 0.00 66 1015.7
20260506123528 34 0 2.0 6.0 0.00 0.00 0.00 66 1015.7
20260506123046 34 331 1.0 5.0 0.00 0.00 0.00 66 1015.7
20260506122528 34 294 2.0 5.0 0.00 0.00 0.00 66 1015.6
20260506122028 34 28 1.0 4.0 0.00 0.00 0.00 67 1015.5
20260506121545 34 310 1.0 6.0 0.00 0.00 0.00 68 1015.5
20260506121028 34 0 2.0 6.0 0.00 0.00 0.00 68 1015.4
20260506120528 33 288 1.0 4.0 0.00 0.00 0.00 68 1015.4
20260506120040 33 355 1.0 5.0 0.00 0.00 0.00 68 1015.4
20260506115530 33 294 2.0 6.0 0.00 0.00 0.00 68 1015.3
20260506115027 33 301 2.0 6.0 0.00 0.00 0.00 69 1015.3
20260506114543 33 300 2.0 7.0 0.00 0.00 0.00 69 1015.2
20260506114029 33 294 3.0 7.0 0.00 0.00 0.00 69 1015.2
20260506113529 33 317 2.0 6.0 0.00 0.00 0.00 69 1015.1
20260506113047 33 280 2.0 6.0 0.00 0.00 0.00 69 1015.1
20260506112527 32 311 1.0 6.0 0.00 0.00 0.00 69 1015.1
20260506112028 32 298 1.0 7.0 0.00 0.00 0.00 69 1015.0
20260506111538 32 292 3.0 7.0 0.00 0.00 0.00 69 1015.0
20260506111028 32 326 1.0 4.0 0.00 0.00 0.00 70 1015.0
20260506110528 32 292 0.0 4.0 0.00 0.00 0.00 70 1015.0
20260506110042 32 300 2.0 4.0 0.00 0.00 0.00 70 1015.0
20260506105529 32 300 2.0 5.0 0.00 0.00 0.00 71 1015.1
20260506105028 32 319 2.0 6.0 0.00 0.00 0.00 71 1015.0
20260506104553 31 277 1.0 6.0 0.00 0.00 0.00 72 1015.0
20260506104028 31 290 1.0 6.0 0.00 0.00 0.00 72 1014.9
20260506103528 31 308 2.0 6.0 0.00 0.00 0.00 72 1014.9
20260506103043 31 293 1.0 4.0 0.00 0.00 0.00 72 1014.8
20260506102527 31 273 1.0 4.0 0.00 0.00 0.00 72 1014.7
20260506102028 31 287 1.0 4.0 0.00 0.00 0.00 72 1014.6
20260506101541 31 287 2.0 4.0 0.00 0.00 0.00 73 1014.6
20260506101027 31 296 2.0 4.0 0.00 0.00 0.00 72 1014.6
20260506100527 30 278 1.0 3.0 0.00 0.00 0.00 73 1014.5
20260506100050 30 0 1.0 3.0 0.00 0.00 0.00 73 1014.6
20260506095529 30 282 1.0 3.0 0.00 0.00 0.00 73 1014.6
20260506095027 30 300 1.0 3.0 0.00 0.00 0.00 72 1014.5
20260506094536 31 281 0.0 3.0 0.00 0.00 0.00 72 1014.6
20260506094028 31 281 1.0 3.0 0.00 0.00 0.00 72 1014.6
20260506093528 31 0 0.0 4.0 0.00 0.00 0.00 71 1014.5
20260506093045 31 0 1.0 4.0 0.00 0.00 0.00 71 1014.5
20260506092529 31 290 1.0 4.0 0.00 0.00 0.00 71 1014.5
20260506092028 31 0 1.0 4.0 0.00 0.00 0.00 71 1014.5
20260506091542 31 325 0.0 4.0 0.00 0.00 0.00 70 1014.4
20260506091031 31 327 1.0 4.0 0.00 0.00 0.00 70 1014.3
20260506090528 31 315 1.0 4.0 0.00 0.00 0.00 70 1014.4
20260506090042 31 319 2.0 4.0 0.00 0.00 0.00 70 1014.4
20260506085527 31 285 1.0 4.0 0.00 0.00 0.00 70 1014.3
20260506085031 31 302 2.0 4.0 0.00 0.00 0.00 71 1014.3
20260506084540 31 328 2.0 4.0 0.00 0.00 0.00 71 1014.2
20260506084028 31 304 1.0 3.0 0.00 0.00 0.00 71 1014.2
20260506083528 30 310 1.0 3.0 0.00 0.00 0.00 72 1014.2
20260506083055 30 327 1.0 3.0 0.00 0.00 0.00 72 1014.1
20260506082528 30 338 0.0 3.0 0.00 0.00 0.00 72 1014.1
20260506082028 30 0 0.0 2.0 0.00 0.00 0.00 72 1014.2
20260506081559 31 0 0.0 2.0 0.00 0.00 0.00 71 1014.2
20260506081028 31 0 0.0 2.0 0.00 0.00 0.00 71 1014.2
20260506080528 31 325 0.0 2.0 0.00 0.00 0.00 71 1014.2
20260506073039 31 0 0.0 3.0 0.00 0.00 0.00 70 1013.9
20260506072527 31 324 0.0 2.0 0.00 0.00 0.00 70 1013.8
20260506072027 32 0 0.0 2.0 0.00 0.00 0.00 70 1013.8
20260506071545 32 0 0.0 3.0 0.00 0.00 0.00 69 1013.8
20260506071027 32 336 0.0 3.0 0.00 0.00 0.00 69 1013.8
20260506070529 32 0 1.0 3.0 0.00 0.00 0.00 69 1013.9
20260506062027 32 306 0.0 4.0 0.00 0.00 0.00 68 1014.2
20260506061545 32 299 0.0 4.0 0.00 0.00 0.00 69 1014.1
20260506061026 32 298 0.0 2.0 0.00 0.00 0.00 69 1014.0
20260506060529 33 310 0.0 2.0 0.00 0.00 0.00 69 1013.9
20260506051028 33 298 0.0 2.0 0.00 0.00 0.00 64 1013.8
20260506050527 34 0 0.0 3.0 0.00 0.00 0.00 64 1013.6
20260506045029 34 301 0.0 3.0 0.00 0.00 0.00 62 1013.7
20260506044547 34 0 0.0 3.0 0.00 0.00 0.00 62 1013.5
20260506044030 34 316 0.0 2.0 0.00 0.00 0.00 62 1013.6
20260506043528 34 325 0.0 3.0 0.00 0.00 0.00 62 1013.6
20260506043036 34 321 1.0 3.0 0.00 0.00 0.00 61 1013.5
20260506042528 34 311 0.0 3.0 0.00 0.00 0.00 61 1013.4
20260506042029 35 0 0.0 3.0 0.00 0.00 0.00 61 1013.5
20260506041543 35 0 1.0 3.0 0.00 0.00 0.00 60 1013.5
20260506041028 35 342 1.0 3.0 0.00 0.00 0.00 60 1013.5
20260506040528 35 0 0.0 4.0 0.00 0.00 0.00 60 1013.4
20260506040041 35 297 1.0 4.0 0.00 0.00 0.00 60 1013.4
20260506035528 35 332 1.0 3.0 0.00 0.00 0.00 59 1013.4
20260506035027 36 321 1.0 3.0 0.00 0.00 0.00 59 1013.4
20260506034552 36 263 0.0 3.0 0.00 0.00 0.00 59 1013.4
20260506034028 36 311 1.0 4.0 0.00 0.00 0.00 59 1013.4
20260506033527 36 345 1.0 4.0 0.00 0.00 0.00 58 1013.3
20260506033038 36 347 1.0 4.0 0.00 0.00 0.00 58 1013.3
20260506032527 37 315 1.0 4.0 0.00 0.00 0.00 57 1013.2
20260506032029 37 345 1.0 9.0 0.00 0.00 0.00 56 1013.2
20260506031550 37 313 1.0 9.0 0.00 0.00 0.00 55 1013.2
20260506031029 37 313 4.0 9.0 0.00 0.00 0.00 55 1013.1
20260506030530 37 11 2.0 6.0 0.00 0.00 0.00 54 1013.2
20260506030041 37 335 2.0 9.0 0.00 0.00 0.00 54 1013.2
20260506025527 38 267 3.0 9.0 0.00 0.00 0.00 54 1013.2
20260506025027 38 28 3.0 7.0 0.00 0.00 0.00 54 1013.1
20260506024549 38 342 2.0 9.0 0.00 0.00 0.00 54 1013.1
20260506024028 38 333 3.0 9.0 0.00 0.00 0.00 53 1013.1
20260506023527 38 319 3.0 7.0 0.00 0.00 0.00 53 1013.0
20260506023038 38 305 2.0 7.0 0.00 0.00 0.00 53 1012.9
20260506022528 38 327 2.0 8.0 0.00 0.00 0.00 53 1012.8
20260506022027 39 329 2.0 9.0 0.00 0.00 0.00 53 1012.7
20260506021538 39 323 3.0 9.0 0.00 0.00 0.00 52 1012.8
20260506021027 39 312 3.0 9.0 0.00 0.00 0.00 52 1012.6
20260506020527 39 317 2.0 9.0 0.00 0.00 0.00 52 1012.5
20260506020037 39 347 3.0 10.0 0.00 0.00 0.00 51 1012.4
20260506015528 40 325 4.0 13.0 0.00 0.00 0.00 51 1012.4
20260506015028 40 327 4.0 13.0 0.00 0.00 0.00 51 1012.4
20260506014542 40 338 3.0 12.0 0.00 0.00 0.00 51 1012.4
20260506014027 40 350 3.0 12.0 0.00 0.00 0.00 51 1012.3
20260506013528 40 271 4.0 12.0 0.00 0.00 0.00 51 1012.3
20260506013042 40 318 4.0 9.0 0.00 0.00 0.00 50 1012.2
20260506012527 41 302 4.0 11.0 0.00 0.00 0.00 50 1012.1
20260506012030 41 288 3.0 11.0 0.00 0.00 0.00 49 1012.1
20260506011543 41 32 2.0 10.0 0.00 0.00 0.00 49 1012.1
20260506011028 41 15 4.0 12.0 0.00 0.00 0.00 49 1011.9
20260506010528 41 303 5.0 12.0 0.00 0.00 0.00 48 1012.0
20260506010051 42 278 6.0 14.0 0.00 0.00 0.00 47 1011.9